RH
84 78 70 70 75 80 81 83 85 88 87 86 84 82 83 89 89 88 95 98 99 99 98 94 90 86 85 87 85 82 82 82 76 67 57 51 46 42 39 42 49 57 63 64 63 62 61 61 60 58 57 60 61 62 62 64 68 72 74 75 78 81 85 87 86 85 85 85 85 85 83 84 83 82 81 79 81 83 83 81 80 78 77 76 76 76 79 80 82 83 82 80 79 79 79 79 77 77 79 80 79 79 79
83 80 73 74 77 81 82 84 87 89 89 88 85 84 86 91 90 91 99 98 97 96 95 91 87 85 85 87 86 83 81 79 71 61 51 48 45 43 42 49 56 62 65 63 61 59 58 58 57 56 56 58 59 60 61 65 69 73 75 76 78 82 86 86 85 84 83 85 85 84 84 83 82 81 79 78 81 83 82 80 78 77 76 75 76 77 81 83 84 83 82 81 80 80 79 78 76 76 79 78 78 78 79
84 82 77 76 79 82 83 84 87 90 92 91 89 86 87 90 89 91 99 97 96 93 90 88 86 85 85 86 84 80 76 71 62 53 47 47 47 48 50 57 62 65 64 62 59 57 55 55 54 53 54 56 57 58 60 64 68 72 75 76 78 81 86 85 85 85 83 84 85 84 83 82 81 80 79 78 80 82 82 79 77 76 75 75 76 78 82 84 84 83 82 81 80 79 79 76 76 76 78 77 77 77 78
85 82 77 77 80 84 85 84 86 90 95 94 90 86 87 87 87 89 99 97 93 89 87 85 85 87 86 83 77 72 70 65 56 48 46 48 51 53 57 62 64 65 63 61 60 58 55 52 52 52 53 55 56 58 60 66 71 74 76 75 78 82 86 85 85 85 83 84 83 82 82 81 79 78 79 80 80 81 82 78 76 74 74 75 77 79 82 84 84 83 80 80 79 78 78 77 77 78 78 77 77 77 78
87 83 77 77 80 84 85 84 86 91 98 96 92 87 86 85 84 87 99 97 94 89 83 83 85 86 84 73 66 64 66 61 53 46 47 51 55 58 61 64 65 64 62 61 60 59 56 52 52 52 53 54 55 58 62 70 75 77 77 76 80 84 87 84 85 85 84 83 81 79 79 79 78 78 78 79 80 80 81 78 76 74 73 76 79 82 82 84 83 82 80 79 77 76 78 78 79 78 78 77 77 77 77
86 83 80 80 81 83 84 83 88 93 98 94 91 89 87 84 83 87 98 97 93 87 80 81 83 82 74 64 60 60 64 64 55 46 49 54 57 59 61 64 64 63 62 62 60 58 56 53 53 53 53 53 54 57 63 73 78 80 79 80 84 87 87 85 85 85 86 83 80 76 73 76 77 78 78 78 78 78 78 78 76 74 75 78 82 84 84 85 85 83 79 76 76 76 77 79 79 79 78 78 77 76 76
84 81 82 85 86 86 84 85 89 94 98 93 90 88 88 84 82 84 92 90 88 85 81 81 81 79 72 64 60 61 66 62 54 47 49 52 54 56 58 60 61 62 64 64 62 59 57 55 54 54 54 53 53 57 65 75 81 82 80 80 84 88 88 85 85 85 84 80 77 74 70 72 76 78 80 79 78 77 77 76 76 77 79 82 85 87 85 86 85 83 80 77 76 76 77 79 80 80 79 78 78 77 77
82 80 81 86 88 87 86 88 91 94 96 93 90 88 86 84 82 82 85 84 83 83 81 82 82 80 74 69 65 62 63 61 54 47 45 49 51 52 53 53 55 59 65 65 63 60 57 55 55 55 55 53 53 57 67 77 82 83 81 80 81 84 86 86 85 83 79 76 73 71 70 71 75 78 80 80 80 78 77 76 76 79 82 84 84 85 88 85 84 84 81 78 77 76 78 78 78 78 79 79 79 78 78
79 81 81 83 84 85 87 89 92 94 93 92 91 89 87 86 83 82 83 84 83 82 81 83 84 83 77 74 70 66 62 58 51 45 43 47 48 48 46 46 50 56 65 66 63 59 55 53 54 55 55 54 55 59 69 78 82 82 79 80 82 85 85 85 82 78 74 71 69 69 71 75 77 79 80 80 81 81 78 76 76 78 84 85 85 85 87 85 85 84 82 78 77 77 76 77 79 80 78 78 78 78 78
76 79 80 78 80 83 86 89 93 95 91 92 90 88 88 86 84 83 83 86 87 86 85 83 84 84 80 77 74 69 62 55 49 45 43 45 45 44 42 43 48 54 61 62 60 56 51 51 52 54 56 56 58 62 70 77 80 79 75 79 83 85 85 80 77 73 70 68 66 67 69 76 80 81 80 81 81 81 81 76 75 77 82 84 85 85 86 86 85 85 83 80 78 76 76 77 78 79 79 78 78 78 78
73 77 78 75 77 81 85 88 93 95 90 91 90 89 88 85 81 80 83 86 89 92 94 90 89 89 85 79 76 71 64 56 50 47 45 45 46 46 46 46 47 48 50 52 53 52 48 48 50 53 57 59 61 65 72 78 79 77 75 81 83 82 80 76 73 70 68 66 66 68 71 77 81 83 82 82 82 82 80 76 74 75 80 84 85 85 86 85 85 85 84 81 78 77 77 78 78 78 78 79 79 79 79
70 74 75 71 74 79 83 87 91 94 92 89 89 90 89 85 79 76 81 83 86 89 93 95 95 93 89 81 77 72 65 58 54 51 50 50 51 52 52 49 46 42 39 40 43 46 45 46 48 51 56 59 62 67 74 79 78 76 75 82 83 80 77 74 71 70 69 68 67 68 73 76 80 83 83 83 83 83 82 77 73 72 78 83 85 86 85 84 84 84 84 82 79 77 77 78 78 78 78 78 78 78 79
67 70 72 68 71 77 84 86 89 90 91 88 88 90 91 86 78 73 76 79 81 83 88 93 95 95 92 85 79 74 67 60 57 57 57 57 58 58 56 53 49 44 36 32 35 39 42 43 46 51 57 61 65 70 76 78 76 72 71 80 81 78 75 73 71 71 71 69 67 67 71 76 78 81 82 83 83 83 83 80 74 71 72 78 82 84 83 83 83 83 84 83 81 78 76 76 77 77 78 79 79 79 78
64 68 71 68 71 78 86 87 88 88 89 88 88 89 93 86 79 74 73 77 79 80 82 87 93 96 94 89 82 75 68 61 59 60 61 62 62 61 58 56 53 48 39 30 30 35 40 41 45 51 60 63 67 71 76 78 74 69 68 78 80 78 75 74 73 72 73 70 68 67 67 73 76 78 80 81 82 82 82 81 77 72 68 71 76 80 79 82 82 81 82 82 82 80 77 74 75 76 77 79 79 79 78
67 73 75 68 73 83 90 89 89 89 88 87 86 86 90 86 82 79 78 78 79 79 79 82 88 94 97 92 85 76 68 62 60 60 61 61 60 59 56 54 51 48 41 30 28 32 38 41 45 51 58 57 62 70 77 78 73 68 71 78 79 78 77 76 75 75 75 72 70 69 67 69 73 75 77 79 81 82 82 81 78 74 68 67 69 73 76 79 81 82 80 79 80 81 79 75 74 75 76 79 79 78 78
74 78 78 67 74 88 94 92 91 90 88 87 85 85 86 86 85 85 84 81 79 79 79 80 85 91 97 93 86 77 69 64 61 61 61 60 58 56 53 50 48 46 43 34 31 33 37 40 45 51 57 54 60 69 77 77 72 69 77 79 79 78 78 78 77 76 75 75 74 72 69 68 70 72 75 77 79 81 82 81 79 77 73 67 65 66 70 73 76 77 76 76 77 79 79 77 76 76 78 79 78 77 78
79 82 80 68 78 92 96 92 91 90 88 87 87 86 86 87 88 88 86 84 80 78 80 81 84 90 97 93 85 77 69 64 62 61 62 60 57 55 51 47 45 44 43 39 37 37 38 40 44 51 59 59 63 70 77 76 73 72 82 79 78 79 79 79 77 77 77 78 77 75 73 70 69 70 73 76 78 79 80 80 80 79 77 71 67 65 66 69 71 72 73 72 74 76 77 78 78 79 79 79 79 79 78
82 84 81 75 85 97 97 92 91 90 88 87 86 87 88 88 90 91 90 86 82 79 80 83 85 89 94 91 84 76 68 64 61 61 62 60 57 54 50 45 43 43 43 42 42 42 40 41 45 51 60 61 65 71 78 76 73 73 81 78 78 79 79 78 78 77 78 79 79 78 76 74 72 71 72 74 76 78 79 79 79 79 79 75 71 68 66 68 69 70 70 70 72 74 75 77 78 78 78 79 79 78 78
84 86 85 84 92 99 97 94 93 91 88 85 84 84 87 89 91 93 92 87 83 81 80 84 86 88 90 88 83 76 69 65 61 60 62 60 57 54 49 45 43 43 43 43 43 43 42 45 48 53 60 61 65 71 78 78 75 74 78 77 78 79 80 79 78 78 78 78 79 80 78 77 75 74 73 73 75 76 77 78 78 78 78 78 76 73 71 70 70 70 69 69 70 72 73 76 77 77 76 78 78 77 76
85 89 89 90 94 99 99 97 95 92 88 82 78 78 81 86 90 92 92 87 83 80 77 82 85 88 88 86 83 78 76 71 65 61 61 59 57 54 51 45 44 46 47 46 45 44 44 48 51 55 60 60 64 71 78 80 77 75 75 76 77 78 81 79 78 78 79 79 80 80 80 79 77 76 75 75 75 75 76 76 77 77 77 78 77 74 72 71 71 71 70 68 69 70 72 75 76 77 77 77 77 76 76
83 89 92 92 95 98 98 97 95 92 87 81 76 74 74 79 84 88 91 88 83 78 73 77 83 86 87 85 82 81 85 79 72 66 62 59 57 55 52 45 45 48 49 48 46 46 47 51 54 57 60 60 65 72 79 81 78 75 74 77 78 78 79 79 79 79 79 79 79 80 82 80 79 78 77 77 76 76 75 75 76 76 76 77 76 74 71 69 69 70 71 69 69 70 72 75 76 76 77 77 76 75 75
79 87 91 92 94 95 95 94 92 90 87 82 77 74 72 74 78 83 87 87 84 80 74 74 77 81 82 80 79 82 87 81 75 69 64 59 56 53 51 44 44 48 49 48 48 50 53 55 56 57 59 60 66 75 79 80 78 75 74 75 77 79 79 80 80 79 79 80 80 80 81 80 80 79 79 78 78 77 77 76 76 76 75 75 75 73 70 68 68 69 70 71 71 71 72 74 76 76 76 76 75 75 75
76 85 91 91 92 92 91 89 87 86 85 81 76 73 72 72 75 79 82 82 82 80 77 74 73 73 73 72 75 80 83 77 72 68 64 58 54 51 49 43 42 45 47 48 50 53 56 58 58 58 59 61 68 76 79 80 78 76 75 74 76 79 80 81 81 81 80 82 82 81 81 81 80 79 79 79 79 79 79 78 77 76 75 75 75 74 72 70 70 70 71 72 72 72 73 74 75 76 76 76 75 75 73
75 84 90 89 89 88 86 85 84 82 81 76 72 71 73 72 74 75 77 75 75 74 75 73 70 66 65 67 72 76 76 71 67 63 60 56 52 50 49 44 40 40 45 47 51 54 56 56 58 59 59 61 68 76 79 79 78 76 76 75 76 78 80 82 84 83 81 83 83 83 82 81 81 80 79 79 79 80 80 80 79 78 77 76 75 74 74 72 72 72 72 73 74 74 74 74 75 76 76 76 76 74 71
77 82 86 86 85 85 83 82 81 79 76 69 68 71 72 72 72 71 70 70 70 69 67 67 66 65 67 68 70 71 69 64 61 59 57 53 51 49 49 46 40 36 41 46 49 51 49 46 51 56 59 61 68 76 78 78 77 76 76 77 78 79 81 84 85 85 84 84 84 83 82 82 81 80 79 79 79 80 80 81 81 80 78 77 76 76 75 74 74 73 74 74 75 76 75 75 76 76 77 77 76 75 71
76 78 80 81 81 81 79 78 78 76 71 62 65 69 68 69 68 67 65 68 69 68 64 60 63 68 71 70 69 67 64 60 57 55 53 51 49 47 47 43 39 36 37 44 48 48 44 36 39 48 58 61 68 75 77 78 77 76 75 76 78 80 82 85 86 85 84 85 85 84 84 82 82 81 80 80 80 80 80 81 81 81 79 78 78 77 77 76 75 75 75 75 76 77 77 77 77 77 77 77 76 75 74
70 72 73 75 76 76 75 75 75 73 66 58 61 67 63 64 65 64 62 65 66 66 63 59 63 68 69 67 65 63 60 56 54 52 51 49 47 45 43 40 37 36 37 43 47 48 46 37 36 43 56 60 66 72 76 76 75 73 70 72 75 78 81 83 84 84 84 85 85 85 85 83 83 82 81 81 81 81 81 81 81 81 81 79 79 79 79 78 77 76 76 76 77 78 78 78 77 76 75 77 77 76 74
65 66 68 70 72 72 71 71 72 71 62 56 59 64 60 60 61 61 60 61 61 61 60 59 60 63 63 61 59 57 55 52 51 49 48 46 44 41 38 36 35 35 38 43 47 50 51 47 46 49 57 59 64 69 73 74 72 69 64 63 66 71 76 77 77 77 80 84 85 85 85 83 83 83 82 82 82 82 82 82 82 82 82 81 80 80 80 80 79 78 77 77 78 78 78 78 78 78 76 78 78 76 74
62 63 66 68 69 69 68 69 70 69 62 55 58 61 57 57 58 58 57 57 56 55 53 53 54 55 55 53 52 50 49 49 48 47 45 44 42 39 36 34 34 35 38 43 48 52 55 54 54 56 59 59 61 66 71 72 70 68 63 60 60 62 67 68 69 69 72 78 82 85 85 84 83 83 82 82 82 82 82 83 83 83 83 82 82 82 82 82 81 80 80 79 79 78 78 78 78 78 78 78 78 77 76
60 62 65 67 68 68 67 67 68 67 62 54 56 59 55 55 55 56 54 52 50 49 47 46 47 47 47 47 46 45 45 45 46 45 44 43 41 38 35 35 35 37 40 44 48 52 55 56 57 57 58 58 60 63 68 70 70 68 66 64 63 63 64 66 67 67 68 72 77 82 84 83 83 82 82 81 81 81 82 82 83 84 84 84 84 83 84 84 83 82 82 81 80 80 79 79 78 78 78 77 77 77 76
59 61 64 66 67 66 66 66 66 65 62 53 54 56 54 53 53 53 51 48 45 43 42 41 41 41 42 43 43 43 42 43 43 43 42 41 38 35 35 37 39 40 42 45 49 52 54 56 56 57 58 58 60 62 66 69 70 69 68 68 68 68 69 69 70 70 69 69 72 77 80 81 81 80 79 79 78 78 79 80 82 83 84 85 85 85 85 85 84 84 84 83 82 82 81 80 79 78 78 77 77 77 76
59 60 63 65 65 64 64 64 63 62 60 52 51 54 55 52 50 49 47 43 41 40 40 38 38 39 40 41 41 41 41 41 41 40 39 38 35 33 36 41 43 44 45 47 49 52 54 56 56 57 58 59 60 62 65 68 70 70 71 70 70 70 71 71 71 70 69 68 70 74 78 79 79 79 78 77 76 75 75 76 77 80 83 84 85 86 86 86 85 85 86 85 85 84 83 82 80 79 78 78 77 77 76
58 60 61 62 62 61 60 60 60 59 57 48 48 51 54 51 48 45 43 40 39 38 39 38 38 38 38 36 38 40 41 41 40 39 38 37 34 33 37 42 44 45 46 47 49 52 54 56 57 58 58 59 60 62 63 66 69 71 72 71 71 70 70 70 70 69 68 66 68 71 76 78 78 77 76 76 75 74 73 73 74 76 79 82 84 85 86 86 85 85 86 87 86 86 85 84 83 81 80 79 78 77 76
58 58 59 59 59 58 57 56 56 56 53 45 45 50 51 49 46 43 41 39 38 38 38 38 38 38 35 31 35 41 42 41 40 40 40 39 37 35 38 41 43 44 45 46 49 51 53 56 57 58 59 59 60 61 63 65 68 69 71 71 71 71 70 70 70 69 68 67 66 68 73 76 77 77 76 75 74 73 73 72 73 75 76 80 82 84 85 85 85 86 86 87 88 88 87 86 85 83 81 80 79 78 77
59 57 56 56 56 55 54 52 52 52 48 44 45 48 49 47 45 43 41 40 39 39 38 38 39 38 36 33 37 43 45 42 41 42 43 43 42 41 41 42 43 44 44 46 47 49 51 54 56 57 59 59 60 60 61 63 66 68 70 71 72 71 71 71 71 71 70 70 68 68 69 73 76 76 76 75 74 73 73 73 73 74 75 78 80 82 83 84 85 85 86 87 88 89 89 88 87 85 83 82 80 79 78
61 58 54 53 53 52 50 49 48 48 45 45 46 47 46 46 45 44 42 42 41 40 39 39 39 40 39 40 43 46 46 43 43 45 46 46 46 45 46 45 45 45 46 47 47 48 49 51 54 56 58 59 59 59 60 61 64 67 69 71 72 72 72 72 71 71 71 71 71 70 69 71 73 74 75 75 74 73 73 73 73 73 74 76 77 79 81 83 84 85 85 86 87 89 90 90 89 87 85 83 81 80 79
64 60 55 52 50 48 46 45 44 44 42 46 47 46 44 44 45 45 44 44 43 42 41 40 41 41 42 43 45 47 45 42 43 46 48 48 48 48 48 49 49 48 48 48 49 48 48 50 52 54 56 57 58 58 59 60 62 65 68 70 72 72 72 71 71 71 70 71 71 71 71 71 71 72 74 74 74 74 73 73 73 73 73 74 76 77 79 80 82 83 84 85 86 88 89 90 90 89 86 85 83 81 79
66 63 57 51 47 44 41 41 41 41 41 46 47 46 43 43 45 46 45 45 43 42 42 42 42 42 43 45 46 47 45 41 41 43 45 47 47 48 49 51 51 50 50 50 50 50 49 50 51 52 54 55 56 57 58 59 60 62 66 69 71 72 72 71 71 71 70 70 70 71 71 71 71 72 72 73 74 74 74 73 72 72 73 74 75 76 77 78 79 81 81 83 84 86 88 90 90 89 87 86 84 82 79
68 65 59 52 46 41 37 39 39 40 40 46 48 47 43 43 44 45 45 43 42 41 41 41 42 43 44 45 46 46 46 43 42 42 43 44 44 46 48 51 51 51 50 51 51 51 51 52 52 52 53 54 55 56 57 58 59 61 64 67 69 70 71 71 71 71 71 70 70 70 70 70 70 71 72 72 73 73 73 72 72 72 72 72 73 74 75 76 77 78 79 81 82 84 86 89 89 88 89 87 85 83 81
68 67 62 54 46 39 35 37 38 39 39 46 48 48 45 44 44 43 43 42 41 40 40 40 41 42 43 44 45 46 46 47 46 46 45 44 44 44 46 49 51 51 51 51 52 52 53 53 53 53 53 54 55 56 57 58 59 60 62 65 67 68 69 70 71 71 71 71 70 70 69 69 69 70 70 71 72 72 72 72 72 71 71 71 71 72 73 74 75 76 78 79 81 82 84 87 88 88 89 88 86 84 81
68 67 66 57 47 39 34 36 38 39 39 44 47 48 47 46 45 43 43 41 41 40 41 40 40 41 41 41 42 45 47 49 50 49 47 46 45 45 46 49 50 51 51 52 53 53 54 55 54 54 53 54 55 56 57 58 59 60 62 63 65 66 67 68 69 70 71 70 70 69 69 68 68 69 69 70 71 71 72 72 71 71 71 72 72 72 72 73 74 75 76 78 80 82 83 85 87 88 87 87 86 84 82
67 67 68 61 51 41 34 37 38 39 39 43 46 47 47 47 45 44 43 42 42 42 43 41 41 42 43 41 41 42 45 48 50 49 47 46 45 46 47 48 49 50 52 54 54 55 55 55 55 55 54 55 55 56 57 58 59 60 62 62 63 64 65 66 67 68 69 69 68 68 68 68 68 69 69 70 70 71 71 72 72 72 72 73 73 73 73 73 73 74 76 78 80 81 82 83 85 86 86 86 85 84 83
65 65 68 65 55 44 36 38 39 39 41 43 45 46 48 47 45 44 43 43 43 44 44 43 44 44 45 44 43 43 44 47 48 48 46 44 44 45 46 47 48 50 52 55 56 56 56 56 56 56 56 57 57 58 59 59 60 61 62 63 63 64 65 65 66 66 67 67 67 67 67 68 68 69 70 70 71 71 72 72 73 73 74 74 74 73 73 73 73 74 75 77 78 79 80 81 83 85 86 85 84 83 82
63 63 66 66 60 49 39 39 40 41 43 44 45 46 48 47 46 44 43 43 44 45 46 45 45 46 46 46 45 45 45 46 47 48 47 45 44 44 45 45 46 48 51 54 56 56 56 56 57 58 59 59 60 60 61 61 62 62 63 63 63 64 64 65 66 66 66 67 67 67 68 68 69 70 71 71 72 72 73 73 74 74 74 74 74 73 72 71 71 71 72 73 75 76 78 79 81 83 85 85 84 82 78
61 61 63 65 62 54 42 41 41 43 45 46 46 46 47 48 47 45 43 42 44 46 47 46 45 46 48 48 47 47 47 46 46 47 48 47 46 46 46 46 46 48 50 53 55 56 57 58 59 60 61 62 63 63 63 62 62 62 63 63 63 63 64 65 66 66 67 67 67 68 69 70 71 71 72 72 73 73 74 74 75 75 74 73 72 71 69 69 68 68 69 70 72 74 76 77 79 81 83 83 82 80 75
59 59 60 63 62 57 45 43 43 44 47 48 48 47 47 47 47 47 45 44 45 47 49 47 44 43 45 48 49 49 48 47 46 47 49 50 50 51 50 50 50 51 52 53 55 56 57 59 60 61 62 64 64 64 64 63 62 62 62 62 62 63 64 65 66 67 67 67 68 69 71 72 72 73 73 73 74 74 74 75 75 74 73 71 70 69 67 67 66 67 67 69 71 72 74 76 77 78 80 80 80 78 73
58 58 58 60 62 59 48 45 44 45 47 49 49 48 47 47 48 49 48 48 49 50 51 50 46 43 40 43 47 49 49 48 49 50 52 54 55 56 56 55 55 55 56 56 56 56 57 59 60 62 63 65 65 65 65 64 63 62 62 62 62 63 64 66 67 67 68 68 69 70 71 72 72 73 73 74 74 74 75 74 74 73 71 70 68 67 66 66 66 66 67 68 70 71 72 73 74 75 76 76 76 74 71
58 57 56 59 60 59 50 47 47 47 48 50 50 49 47 48 49 51 51 50 50 52 52 53 51 48 43 41 41 43 46 48 50 52 54 55 56 57 57 58 57 56 53 53 54 55 56 58 59 61 63 64 65 66 66 65 64 63 63 62 63 63 65 67 68 68 68 69 69 69 69 70 71 72 73 73 74 74 74 74 73 72 70 69 68 67 66 66 66 66 68 69 70 70 69 69 70 72 74 73 72 70 68
57 57 56 57 59 58 52 50 49 49 50 51 51 50 48 48 50 51 51 49 49 50 52 53 55 55 52 47 43 41 40 42 46 50 53 53 53 53 53 54 54 53 51 50 51 52 54 56 58 59 61 63 65 65 65 65 64 63 63 64 64 65 66 67 68 69 69 69 68 67 67 67 69 70 72 73 74 74 74 73 72 71 70 69 68 67 66 67 67 68 70 70 70 69 67 67 68 70 71 69 67 65 67
55 55 55 56 57 56 53 52 52 52 52 52 51 50 48 49 51 52 52 49 47 46 48 51 55 57 57 55 52 48 43 41 43 47 51 52 52 53 56 51 49 49 50 51 52 54 55 56 57 59 60 62 63 64 64 63 63 63 63 65 66 66 67 68 69 70 70 69 68 66 65 66 67 68 70 72 73 74 74 73 72 71 71 70 69 69 69 69 70 71 71 70 68 67 66 66 68 68 68 64 61 60 62
54 53 54 55 55 55 53 54 54 54 54 53 52 50 49 50 52 53 53 51 48 47 47 50 53 56 58 57 56 54 51 47 47 48 52 52 52 53 60 54 55 58 57 57 57 57 57 58 59 60 60 61 62 62 62 61 61 62 64 66 66 67 67 68 69 70 70 68 67 66 65 65 66 67 69 71 72 73 74 73 73 72 72 72 72 72 72 72 72 72 71 69 67 65 65 66 67 67 63 59 56 54 54
52 51 51 52 53 53 53 54 55 55 54 54 52 50 50 51 52 53 53 52 51 50 49 52 54 57 58 57 56 55 55 53 51 51 52 53 52 50 48 56 62 64 57 52 53 57 61 61 62 62 62 61 61 60 60 60 61 62 64 66 66 66 66 68 68 69 69 68 67 66 65 65 65 67 69 70 72 73 74 74 74 74 74 74 74 74 73 73 72 71 69 67 66 65 65 66 67 64 57 52 51 51 51
50 48 47 49 50 51 52 54 55 54 53 53 52 51 51 52 53 54 54 53 53 53 53 55 57 58 59 58 56 55 56 57 56 54 52 52 52 52 54 65 69 66 59 57 58 60 65 69 69 67 65 64 62 61 60 60 60 62 64 65 65 65 66 67 68 68 68 67 66 66 65 65 66 67 68 70 71 73 74 75 76 76 76 76 75 75 74 73 71 70 68 66 65 65 66 67 64 60 52 48 48 48 47
50 46 44 45 47 49 51 53 54 54 52 53 53 52 53 54 54 55 56 55 55 55 56 58 58 59 60 59 56 54 56 62 63 60 57 54 54 56 64 70 72 73 78 77 70 63 58 61 64 66 65 64 64 62 60 60 61 62 63 64 64 64 65 66 67 67 67 66 66 66 65 66 66 67 68 70 71 73 75 76 77 78 78 77 77 76 75 73 71 69 67 66 66 66 67 66 61 55 50 48 46 45 43
52 47 44 44 45 48 50 53 54 54 53 54 54 54 55 56 56 57 57 57 56 57 58 60 59 59 59 60 58 55 54 62 66 66 63 58 54 57 69 76 76 75 79 76 71 63 53 56 60 64 65 65 65 64 62 61 62 63 63 63 64 65 66 66 66 66 66 66 66 66 66 67 67 68 68 70 72 74 76 77 78 79 80 79 78 77 75 73 72 70 68 67 67 67 67 63 58 53 51 49 44 40 40
54 51 47 46 47 49 52 54 55 56 55 56 57 57 57 57 57 58 59 59 58 58 59 61 60 59 58 59 59 57 53 59 64 65 64 60 55 52 53 61 65 66 66 65 63 61 61 67 71 72 66 66 66 65 63 63 63 63 63 63 63 64 65 66 66 66 65 66 66 67 67 68 68 69 69 71 73 75 76 78 79 80 81 80 79 77 75 73 71 70 69 68 68 66 64 59 56 53 52 49 41 36 38
57 54 52 50 51 52 56 57 58 59 59 59 59 59 59 59 58 59 60 60 59 59 59 61 60 59 57 58 59 58 55 58 62 65 64 61 57 53 49 51 56 60 61 62 63 66 72 69 68 66 63 66 67 65 63 62 62 62 62 62 63 63 64 65 65 65 65 66 67 67 68 68 69 69 70 72 74 76 77 78 80 81 82 81 79 76 72 69 67 66 65 65 64 62 59 56 55 54 51 44 35 32 38
59 57 56 55 55 56 59 60 61 62 62 62 62 61 61 60 60 60 60 60 59 59 58 60 60 59 58 58 58 59 58 60 63 66 66 63 60 57 53 52 51 52 54 60 65 73 85 80 75 68 63 63 64 65 63 62 62 61 62 62 62 63 63 64 64 65 65 66 67 68 68 69 69 70 71 73 75 76 78 79 80 81 82 81 79 75 70 66 62 60 59 59 58 56 55 55 54 51 44 35 30 31 41
60 59 58 58 58 59 60 62 63 64 64 64 64 64 63 62 62 61 61 61 60 59 58 59 59 59 58 58 59 60 60 61 64 68 69 67 65 61 58 56 55 55 55 57 61 68 80 85 81 73 66 61 59 58 60 62 63 63 63 63 63 63 64 64 64 65 65 66 67 67 68 68 69 70 72 74 75 77 78 79 80 81 82 82 80 76 70 64 60 56 54 53 52 52 51 51 49 43 36 31 32 35 40
62 60 60 59 59 60 61 62 63 64 65 65 65 65 65 64 63 63 63 62 61 60 59 59 59 59 59 59 60 60 61 61 64 68 71 72 70 67 63 62 61 60 58 58 60 63 68 77 79 75 68 65 61 57 54 57 59 61 62 63 63 63 64 64 65 65 65 66 66 67 67 68 69 70 72 73 75 77 78 80 80 81 81 81 80 77 72 65 59 53 50 48 48 48 48 47 43 37 33 32 31 33 38
64 63 61 60 60 60 61 62 63 63 64 65 65 65 65 65 64 64 64 63 63 62 61 60 60 60 60 60 61 61 62 62 63 66 71 74 74 72 69 68 67 65 63 62 62 63 66 68 69 69 69 73 71 66 62 61 59 57 57 58 59 60 61 63 64 65 66 66 66 67 67 68 69 70 71 73 76 78 79 80 80 80 81 82 81 78 73 66 58 51 46 44 44 44 44 41 36 33 30 30 29 30 35
Wind_Speed
14 17 19 18 17 14 12 11 13 16 17 15 13 11 10 10 10 10 12 15 18 19 19 18 17 16 15 16 16 15 14 14 13 14 15 18 19 21 21 20 18 14 11 8 6 5 5 6 7 9 11 11 11 12 13 13 11 10 9 9 11 12 13 11 10 9 10 10 10 11 10 11 11 11 10 10 10 10 10 10 10 10 10 10 10 10 9 10 10 10 10 10 10 10 10 11 11 11 11 11 11 11 11
14 18 19 19 17 15 12 10 13 16 17 15 13 12 11 11 11 11 14 17 18 18 17 16 15 14 14 15 15 15 14 13 13 14 16 19 20 21 21 19 16 13 10 8 6 6 6 7 8 10 11 11 11 11 11 11 10 9 9 9 11 11 12 10 9 9 9 10 10 10 10 10 10 10 10 9 9 10 10 10 10 9 9 9 9 9 9 10 10 10 10 10 10 10 11 11 10 10 11 10 10 10 10
14 19 21 19 17 15 12 11 12 15 17 15 13 13 12 12 11 12 16 18 17 16 15 14 14 13 13 14 14 13 13 13 13 15 18 19 20 20 20 17 15 12 10 8 8 9 9 10 10 11 11 10 9 9 9 9 8 8 8 9 10 11 11 9 9 9 9 10 10 10 10 10 10 10 10 9 9 9 10 9 9 9 9 9 9 9 9 10 10 10 10 10 11 11 11 10 10 10 10 10 10 10 10
15 20 22 20 16 14 12 11 12 14 15 15 13 13 12 11 11 12 15 18 17 15 15 13 13 13 13 13 13 12 12 12 14 16 19 20 20 20 18 16 14 11 9 8 9 10 11 10 11 11 10 9 8 8 8 8 8 8 8 9 11 11 10 9 9 9 9 9 10 10 10 10 9 9 9 9 9 9 9 9 9 9 9 9 8 9 9 9 10 10 10 10 10 10 10 10 10 10 10 10 10 10 10
15 19 21 19 15 13 11 11 12 13 15 16 14 13 12 11 10 11 14 17 17 16 15 14 13 13 13 12 12 12 11 12 14 17 19 19 19 18 17 15 13 11 9 9 9 10 10 10 10 10 9 8 8 9 9 9 9 9 9 10 11 10 9 8 8 9 9 9 9 9 9 9 9 9 9 9 9 9 9 9 8 8 8 8 8 8 9 9 9 10 10 10 10 10 10 10 10 10 10 10 10 10 10
14 16 17 17 14 12 11 11 11 12 15 18 16 14 13 12 11 11 13 15 15 15 14 14 13 12 12 12 12 12 12 12 14 16 18 18 18 17 16 14 13 10 9 9 10 11 11 9 9 8 8 8 8 9 8 9 9 9 9 10 11 10 9 8 7 8 9 9 9 9 9 9 9 9 9 9 9 9 9 8 8 8 8 8 8 8 8 9 9 10 10 10 10 10 10 10 10 10 10 9 9 9 9
14 13 13 14 13 13 12 12 11 12 15 19 18 15 13 13 13 12 13 14 14 13 13 13 12 12 11 11 11 12 12 12 14 16 17 18 17 16 15 13 11 9 8 8 10 11 11 10 8 8 8 8 8 8 8 9 9 9 9 10 10 10 9 8 8 8 9 9 9 8 8 8 8 8 9 8 8 8 8 8 8 8 8 8 8 8 8 8 9 9 9 10 10 10 10 10 10 10 9 9 9 9 9
15 14 12 12 13 14 13 13 12 12 15 18 18 15 13 13 13 14 14 15 14 12 12 12 11 11 10 10 10 11 11 12 13 15 17 17 16 15 14 12 10 8 7 8 10 11 12 10 8 7 7 8 8 8 8 9 9 8 8 8 9 9 8 9 9 9 8 9 8 8 8 8 8 8 8 8 8 8 8 8 8 8 8 8 7 7 8 8 8 9 9 9 9 9 9 10 10 10 10 9 9 9 9
16 16 14 13 14 14 15 14 12 12 14 18 18 16 13 12 13 14 14 15 15 13 12 11 11 10 9 9 9 9 10 11 13 14 15 15 15 14 12 11 9 7 6 8 9 11 11 10 8 7 7 7 7 7 8 8 8 7 7 8 8 8 9 9 9 8 8 8 8 8 8 8 8 8 8 8 8 8 8 8 8 8 8 7 7 7 7 8 8 9 9 9 9 9 9 9 10 10 10 10 10 10 10
16 16 15 15 15 15 16 15 13 11 13 16 18 17 13 12 13 14 14 14 14 14 14 13 11 9 8 8 8 9 9 10 12 13 14 14 13 12 11 9 8 7 6 7 9 10 11 10 8 7 6 6 6 6 7 7 7 7 7 9 9 10 10 9 8 8 8 9 8 8 8 8 8 7 7 7 7 7 8 8 8 8 8 7 7 7 7 8 8 8 9 9 9 9 9 9 9 9 10 10 10 10 10
16 15 15 15 16 16 17 16 14 12 12 15 17 17 14 12 13 14 14 13 13 13 14 14 13 11 9 8 8 8 9 10 11 12 12 12 12 11 10 8 7 6 6 7 8 9 10 9 8 6 6 6 6 6 6 6 6 6 8 10 10 9 9 8 8 8 8 8 8 8 8 8 7 7 7 7 7 7 7 7 7 7 8 8 7 6 7 7 8 8 8 9 9 9 9 9 9 9 10 10 10 10 10
16 16 15 16 16 17 17 16 14 13 12 13 14 16 15 12 12 14 14 13 12 11 12 13 13 13 10 8 7 8 9 10 11 12 12 12 11 10 9 8 8 7 7 7 8 8 9 9 7 5 5 5 5 5 6 6 5 6 8 10 10 9 8 8 8 8 8 8 8 8 8 8 7 7 7 6 7 7 7 7 7 7 8 8 7 7 7 7 7 8 8 8 9 9 9 9 9 9 9 10 10 10 10
16 17 16 16 16 17 18 17 15 13 13 12 12 13 14 13 12 13 14 14 13 11 10 10 12 13 12 9 8 8 8 10 11 11 12 11 11 10 9 8 7 7 7 7 8 8 8 8 6 5 4 5 5 5 4 5 5 5 7 9 9 9 8 8 8 8 8 8 8 8 8 7 7 7 6 6 6 6 7 7 7 7 7 7 8 7 7 7 7 7 8 8 8 9 9 9 9 9 9 10 10 10 10
17 17 17 16 17 17 18 17 16 14 13 13 11 11 12 12 12 12 13 14 14 13 11 10 10 12 12 10 8 8 8 9 10 11 11 11 10 9 8 7 6 6 6 7 8 8 8 7 5 4 4 5 5 4 3 4 4 5 7 8 9 9 8 8 7 7 8 8 8 8 8 7 7 6 6 6 6 6 6 7 7 7 7 7 7 7 7 7 7 7 8 8 8 8 9 9 9 9 9 9 10 10 10
17 17 17 17 16 17 19 18 16 14 14 13 12 11 11 12 12 12 12 13 14 14 13 11 10 10 12 11 9 8 8 9 10 10 10 10 9 8 7 6 5 6 6 7 7 7 7 5 4 4 4 5 5 4 4 4 4 5 7 8 9 9 8 8 7 7 7 8 8 8 8 7 6 6 6 6 6 6 6 6 7 7 6 6 7 7 7 7 7 7 7 8 8 8 8 8 9 9 9 9 9 10 10
17 17 17 17 16 17 20 19 16 14 14 14 13 13 12 12 13 13 12 12 13 14 14 13 11 10 11 11 10 9 9 9 9 9 9 8 8 7 6 5 5 5 6 7 7 6 5 4 4 5 5 6 5 4 5 5 5 6 7 8 8 8 8 8 7 7 7 7 8 8 8 7 6 6 6 6 6 6 6 6 6 6 7 7 6 6 7 7 7 7 7 8 8 8 8 8 9 9 9 9 9 10 10
17 17 17 17 16 17 22 21 18 15 14 14 14 15 14 13 13 13 13 12 13 14 14 14 12 10 10 12 11 10 9 8 9 9 8 7 7 6 5 5 5 5 6 6 6 5 4 3 4 5 6 5 5 5 6 5 6 7 8 8 8 8 8 7 7 6 7 7 7 7 7 7 7 6 6 6 6 5 5 6 6 6 7 7 7 7 7 7 7 7 7 8 8 8 8 8 8 9 9 9 9 10 10
16 16 16 16 16 18 22 21 19 16 14 14 15 16 15 14 13 13 13 12 12 14 14 14 13 11 10 11 12 11 9 8 8 9 8 7 6 6 5 4 5 5 6 6 5 4 4 3 4 5 6 5 6 6 6 6 7 8 9 8 8 7 7 7 6 6 6 6 7 7 7 7 7 6 6 5 5 5 5 5 5 6 6 7 7 7 7 7 7 7 7 8 8 8 8 9 9 9 9 9 10 10 10
15 15 15 16 17 18 21 21 20 18 16 16 16 16 15 14 13 13 14 13 13 13 14 15 14 13 12 12 12 11 9 8 8 9 8 7 6 5 4 4 5 5 5 5 4 4 4 5 5 5 6 6 6 7 7 7 8 9 9 8 8 7 7 6 6 5 5 5 5 6 6 6 6 6 6 6 5 5 5 5 5 5 6 6 7 7 8 7 7 7 7 8 8 8 8 9 9 9 9 9 10 10 11
15 15 16 17 17 18 19 19 19 18 17 17 16 16 15 14 14 14 14 14 14 14 15 15 15 14 13 13 12 11 9 7 7 8 8 7 6 5 4 4 5 5 5 3 3 3 5 5 5 5 5 5 6 8 8 8 9 9 8 8 7 7 7 6 5 5 5 4 4 5 5 5 5 6 6 6 5 5 5 5 5 5 5 6 6 7 7 8 7 7 7 7 8 8 8 9 9 9 9 10 10 10 11
16 16 16 17 17 17 17 18 18 18 17 16 16 15 14 14 13 14 14 15 14 14 14 15 15 15 14 14 13 11 9 8 7 7 7 7 6 5 4 4 5 5 3 2 3 4 5 6 6 5 5 5 6 8 8 9 9 9 8 8 8 7 6 6 5 4 4 4 4 4 4 4 5 5 5 5 5 5 5 5 5 5 5 5 6 6 7 7 8 7 7 7 8 8 8 8 9 9 9 10 10 11 11
17 16 16 17 17 17 16 16 16 16 16 15 14 13 14 14 14 14 14 14 14 14 14 14 15 15 14 14 13 12 11 10 8 7 6 6 6 5 4 4 4 4 3 4 5 6 6 7 6 6 5 4 6 8 9 9 9 9 7 7 7 7 6 5 5 4 4 3 3 3 3 3 4 4 4 4 5 5 5 5 5 5 5 5 5 6 7 7 7 7 7 7 7 8 8 8 9 9 9 10 10 11 11
18 16 16 16 16 16 15 15 15 15 15 13 12 12 12 13 14 14 14 14 14 14 14 14 14 14 14 13 12 11 12 12 10 8 7 6 6 5 4 4 4 5 5 5 6 7 8 8 7 6 5 4 6 8 9 9 9 9 7 6 6 6 6 5 5 4 4 3 3 3 3 3 3 3 3 4 4 4 4 4 5 5 5 5 5 6 6 7 7 8 8 8 7 7 8 8 8 9 9 10 10 11 11
17 16 15 16 16 15 15 14 14 14 14 13 12 11 11 12 13 14 14 14 14 14 14 14 14 13 12 11 10 10 11 12 11 8 7 6 6 6 5 4 4 5 6 7 7 8 9 9 9 7 5 4 5 8 8 9 9 8 8 7 6 6 6 5 5 5 4 4 3 3 2 2 2 2 2 3 3 3 4 4 4 4 4 4 5 5 6 7 7 7 8 8 8 8 8 8 8 9 9 10 10 11 11
16 16 16 16 15 15 15 14 14 14 13 13 13 12 11 11 11 12 12 12 12 12 13 14 14 12 11 10 9 9 9 10 10 9 7 7 7 7 6 5 5 6 7 7 7 8 9 9 9 8 6 4 5 8 8 8 8 8 7 7 7 7 6 6 5 5 4 4 3 3 2 2 1 1 1 2 2 3 3 3 3 4 4 4 4 5 6 6 7 7 7 8 8 7 8 8 8 9 9 10 10 11 11
16 16 16 16 16 16 15 15 15 14 13 14 14 13 12 11 11 10 11 11 11 11 11 12 13 12 11 10 10 9 9 9 10 10 8 8 8 8 7 6 6 6 7 7 7 8 8 9 9 8 6 5 6 7 8 7 7 7 7 7 7 7 7 6 6 5 4 4 4 3 3 2 2 1 1 1 1 2 2 2 3 3 3 4 4 4 5 6 6 7 7 7 7 7 8 8 8 9 9 10 10 11 11
16 17 17 16 16 16 16 16 15 15 14 15 15 14 13 12 11 11 11 11 11 10 10 11 12 12 12 11 11 10 9 10 10 10 9 9 8 8 7 7 7 7 7 8 8 8 7 7 8 8 7 6 6 7 7 7 6 5 6 6 7 8 8 8 7 6 5 4 4 4 3 3 2 2 1 1 1 1 1 1 2 2 3 3 3 4 5 5 6 7 7 7 7 7 8 8 8 9 9 10 10 11 12
16 16 17 17 17 16 16 16 16 15 14 15 15 14 13 13 12 12 11 12 12 11 10 11 11 12 12 12 11 11 10 10 10 10 9 9 9 8 7 7 7 8 8 8 8 8 6 6 6 7 6 7 7 8 8 7 5 5 5 6 7 8 9 9 8 7 6 5 5 5 4 3 3 3 2 1 1 0 0 1 1 1 2 2 3 3 4 5 6 6 7 7 7 7 8 8 8 9 9 10 11 11 12
16 16 17 17 17 17 16 16 16 15 15 16 16 14 14 13 13 13 12 12 12 12 11 11 12 12 13 12 12 11 11 11 11 10 9 9 9 9 8 7 8 8 8 8 8 8 7 6 6 6 6 7 8 8 8 7 6 5 5 5 6 7 8 9 9 9 8 7 6 6 5 5 4 4 3 2 2 1 1 1 1 1 2 2 3 3 4 5 5 6 7 7 7 7 8 8 8 9 9 10 11 11 12
15 16 16 17 17 17 16 16 15 15 16 17 16 15 14 13 13 13 13 13 12 12 12 12 12 13 13 13 12 11 11 11 11 10 9 10 10 10 9 8 8 8 9 9 8 8 7 6 6 6 7 7 8 9 9 8 7 6 5 5 6 6 7 8 8 8 8 8 7 7 6 6 5 5 4 4 3 3 2 2 2 2 2 2 3 3 4 4 5 6 6 7 7 7 8 8 8 9 9 10 11 11 12
15 15 16 16 16 16 15 15 15 15 16 17 17 15 14 13 13 13 13 12 12 12 12 12 13 13 13 14 13 11 10 11 11 11 10 10 10 10 9 8 8 8 9 8 8 8 7 7 7 7 7 7 8 9 9 9 8 7 7 6 6 6 6 7 7 7 7 8 8 8 7 7 7 6 6 6 5 4 4 3 3 3 3 3 3 3 4 4 5 6 6 7 7 7 8 8 8 9 9 10 11 11 12
16 15 15 16 16 15 15 15 15 15 16 18 17 15 14 13 13 13 12 12 12 12 12 12 12 13 13 14 13 11 10 10 11 11 10 10 10 10 10 9 9 9 8 8 8 8 8 8 8 8 8 8 8 8 9 9 9 8 8 7 7 7 6 6 6 6 7 7 8 8 8 8 8 8 8 7 7 6 6 5 5 4 4 4 4 4 4 5 5 6 6 7 7 7 8 8 8 9 9 10 11 11 12
16 16 15 15 15 16 15 15 15 15 16 17 17 15 14 13 13 12 12 12 12 11 11 12 12 12 13 14 13 11 10 10 10 10 9 9 10 10 10 9 9 9 8 9 9 9 8 9 9 8 8 8 8 8 9 9 9 9 9 9 8 7 7 6 6 6 7 7 8 8 9 9 9 9 9 8 8 8 7 7 6 6 5 5 4 4 5 5 6 6 6 7 7 8 8 8 9 9 9 10 11 11 12
17 17 16 16 16 16 16 16 16 16 16 17 17 15 14 14 13 12 12 12 11 11 11 11 11 11 11 12 12 11 10 10 9 9 9 8 9 9 10 9 9 9 9 9 9 9 9 9 9 9 9 8 8 8 8 9 9 9 9 9 9 8 8 7 7 7 8 8 8 9 9 10 10 10 10 9 9 9 9 8 8 7 7 6 5 5 6 6 6 6 7 7 7 8 8 8 9 9 10 10 11 12 12
18 17 17 16 16 16 16 16 16 16 16 17 16 15 15 15 14 13 12 12 12 11 11 11 11 10 10 11 11 11 11 10 10 9 8 8 8 8 9 9 9 9 9 9 9 9 9 9 9 9 9 9 9 9 9 9 9 10 9 9 9 9 9 9 9 9 9 9 9 10 10 10 11 11 11 11 11 10 10 9 9 9 8 7 7 7 7 7 7 7 7 7 8 8 8 8 9 9 10 10 11 12 12
17 17 17 17 17 17 17 16 16 16 17 17 16 16 16 15 14 13 13 13 13 12 12 11 11 10 10 10 11 11 11 11 10 10 9 9 8 8 9 9 9 10 10 10 10 10 10 10 10 9 10 10 10 10 10 9 10 10 9 9 9 9 10 10 10 10 10 10 10 10 10 11 11 12 12 12 12 11 11 11 10 10 9 9 8 8 8 8 8 8 8 8 8 8 8 9 9 9 10 11 11 12 13
17 17 17 17 17 17 17 16 16 17 17 17 16 16 16 16 15 14 14 14 13 13 13 12 12 12 11 11 11 11 11 11 11 10 10 9 9 9 9 9 10 10 10 11 10 10 10 10 10 10 10 10 10 10 10 10 10 10 10 10 10 10 10 11 11 11 11 11 10 10 10 11 12 12 12 13 13 12 12 12 12 11 11 11 10 10 9 9 9 9 9 9 8 9 9 9 9 10 10 11 12 12 13
16 17 17 17 17 18 17 17 17 17 18 17 16 16 17 16 16 14 14 14 14 13 13 13 13 12 12 11 11 10 10 10 11 11 10 10 9 9 10 10 10 10 11 11 11 11 11 11 11 10 10 11 11 11 11 11 11 11 11 11 11 11 11 11 11 12 11 11 11 10 10 11 12 12 13 13 13 13 13 14 13 13 12 12 12 11 11 11 10 10 10 10 9 9 9 9 9 10 10 11 12 12 13
16 16 17 17 17 17 18 17 17 18 19 18 17 16 16 16 15 15 14 14 14 14 14 14 13 13 12 12 11 10 9 10 10 10 10 9 9 9 10 10 10 11 11 11 11 11 12 12 11 11 11 11 11 11 11 12 12 12 11 11 11 11 11 11 12 12 12 11 11 11 11 12 12 13 14 14 14 15 15 15 15 15 14 14 14 13 13 12 12 12 11 11 11 10 10 9 10 10 11 11 12 13 13
15 15 16 16 17 17 18 18 18 18 19 18 17 16 16 15 15 14 14 13 13 13 14 14 14 13 13 12 11 10 10 10 10 10 10 9 9 9 10 10 11 11 11 11 11 11 12 12 12 11 12 12 12 12 12 12 12 12 12 12 12 12 12 12 11 11 12 12 12 12 12 13 13 14 14 15 15 16 16 16 16 16 16 16 16 15 15 15 14 13 13 12 11 11 10 10 10 11 11 11 12 13 13
15 15 15 15 16 17 18 18 18 19 19 18 17 16 15 15 15 15 14 14 14 13 13 13 13 13 13 13 12 11 11 11 10 10 10 10 10 10 10 10 11 11 12 12 12 12 11 11 12 12 12 12 12 13 13 13 13 13 13 12 12 12 12 12 11 11 12 12 13 13 13 14 14 15 15 15 16 16 17 17 18 18 18 17 17 17 16 16 15 14 13 13 12 11 11 11 11 11 11 12 12 13 13
15 14 14 15 16 17 18 18 18 18 19 18 17 17 16 15 15 15 15 14 14 14 14 13 13 12 12 12 12 12 12 11 11 11 11 11 11 11 11 11 11 11 11 12 12 12 12 12 12 12 12 12 12 13 13 13 13 13 13 13 13 13 13 12 12 12 12 13 14 14 14 15 15 16 16 16 17 17 18 18 18 19 18 18 18 17 17 16 15 14 14 13 12 12 12 12 12 12 12 13 13 13 14
15 15 14 14 15 17 18 19 18 18 18 18 18 17 16 15 15 14 14 14 15 15 15 14 13 12 11 11 12 12 12 12 12 12 12 12 12 11 11 11 11 11 11 12 12 12 12 12 12 12 12 12 13 13 13 13 13 13 13 14 14 14 14 13 13 13 14 14 15 15 16 16 17 17 17 18 18 18 18 19 19 19 19 18 18 17 17 16 15 15 14 14 13 13 13 13 12 12 13 13 13 14 14
15 15 15 14 15 16 18 19 19 18 18 18 17 17 16 15 15 14 14 14 15 15 15 15 14 13 12 11 12 12 12 12 12 12 11 11 11 12 12 12 11 11 11 12 12 12 13 13 13 13 13 13 14 14 14 14 14 13 14 14 15 15 15 15 15 16 16 16 17 17 17 17 18 18 19 19 19 19 19 19 19 19 19 18 18 17 17 16 16 15 15 15 15 14 14 13 13 13 13 13 14 14 14
15 15 15 14 15 16 18 19 19 19 18 18 17 17 16 15 15 15 15 14 15 15 16 16 16 15 13 12 11 11 11 11 11 11 11 11 11 11 11 12 12 12 12 12 12 13 13 13 13 14 14 15 16 16 16 16 15 15 14 15 15 15 16 16 17 18 19 19 19 19 18 19 19 19 19 20 20 19 19 19 19 19 18 18 17 17 17 16 16 16 16 16 16 15 15 14 14 13 13 14 14 15 15
16 15 16 15 15 16 18 19 20 19 18 18 17 17 16 16 15 15 15 15 14 14 15 15 16 16 15 13 11 11 10 10 10 10 10 10 10 11 11 11 11 11 12 12 12 13 13 14 14 14 15 16 17 17 18 18 17 16 15 15 16 16 16 17 18 19 20 20 20 19 19 20 20 19 19 19 19 19 19 18 18 18 18 17 17 17 17 17 17 17 17 17 17 16 15 14 14 14 14 14 15 15 15
16 16 16 15 15 17 18 20 20 19 19 18 18 17 17 16 16 16 16 15 14 13 13 14 15 15 15 14 13 11 10 9 8 8 8 8 8 9 9 10 10 11 12 12 13 14 14 14 15 15 16 17 17 18 18 18 17 17 16 16 16 16 17 17 19 19 20 20 19 19 18 18 18 18 18 18 18 17 17 17 17 17 17 17 18 18 18 18 18 18 18 18 17 17 16 15 14 14 14 15 15 15 14
16 16 16 16 16 17 19 20 20 20 19 18 18 18 17 17 17 17 17 16 15 14 12 12 13 14 14 15 14 13 12 10 9 7 6 6 7 7 8 9 10 12 13 15 15 16 15 15 16 16 17 18 18 18 18 17 17 17 17 17 17 16 17 17 18 19 19 19 18 17 16 16 16 16 16 16 16 16 16 16 17 17 18 18 18 19 19 19 19 19 19 19 18 17 16 15 14 14 15 15 15 14 13
16 16 16 16 16 17 19 20 20 20 19 18 18 18 17 17 16 16 16 17 16 15 13 11 11 12 12 13 14 14 14 12 11 9 7 6 6 7 8 10 12 14 16 17 17 17 17 18 18 18 19 19 19 19 18 17 17 17 17 17 17 17 17 17 18 19 19 18 18 16 15 14 14 14 14 14 14 14 15 16 17 18 19 19 19 20 20 20 20 20 20 19 19 18 16 15 15 15 16 15 14 14 13
16 16 16 16 17 18 19 20 20 20 19 18 18 17 16 16 16 15 15 15 16 15 13 12 11 11 11 12 12 13 13 14 12 11 9 8 6 5 5 8 11 14 16 17 17 18 19 19 20 20 20 20 20 19 18 17 17 17 17 18 18 18 18 18 18 18 18 18 17 16 15 14 13 13 13 13 13 13 14 15 17 18 19 20 20 20 20 21 21 21 20 20 19 18 17 16 16 17 16 15 14 13 13
16 16 16 17 18 19 20 20 20 20 19 18 17 17 16 16 15 15 15 15 15 15 14 13 12 12 11 11 11 11 12 13 13 12 8 8 8 7 4 5 6 7 10 12 15 18 20 21 21 21 21 21 20 19 18 18 18 18 18 18 19 18 18 18 18 18 18 18 17 16 15 15 14 13 13 12 12 13 13 15 16 18 19 20 20 21 21 21 21 21 20 20 19 18 18 18 18 17 16 15 13 13 13
16 16 17 17 18 19 20 20 20 20 19 18 17 17 16 16 15 15 15 15 15 15 15 14 13 12 11 11 10 10 11 12 14 14 11 10 10 11 11 6 2 2 2 5 9 13 17 20 21 22 22 21 20 19 19 18 19 19 19 20 20 19 19 18 18 18 18 18 17 17 16 15 15 14 13 13 13 13 13 14 16 17 18 19 20 20 21 21 21 21 20 20 19 19 19 19 19 18 16 14 13 13 14
16 16 17 17 18 19 19 20 20 20 19 18 17 17 16 16 16 16 16 16 16 16 16 15 13 12 11 11 10 9 9 11 14 15 14 11 10 9 9 3 1 1 1 1 3 3 7 12 17 21 22 22 20 19 19 19 20 21 21 21 20 20 19 18 17 17 18 18 18 17 17 16 15 15 14 14 13 13 13 14 15 16 17 18 19 20 20 21 21 21 20 20 20 20 20 20 19 17 15 14 14 14 15
16 16 17 17 18 18 19 19 20 19 19 18 18 17 17 16 16 16 16 16 16 16 16 15 14 12 11 11 11 11 9 11 13 14 14 13 10 6 2 1 2 2 2 2 0 2 3 5 11 17 21 21 20 20 19 20 21 21 21 21 21 20 19 17 17 17 18 18 18 18 17 17 16 16 15 15 14 13 13 14 14 15 16 17 18 19 19 20 20 20 21 21 21 21 21 20 18 16 15 14 15 15 15
16 16 17 17 18 18 19 19 19 19 19 18 17 17 16 16 16 16 16 16 16 16 16 16 14 13 12 12 12 13 11 12 13 14 15 15 13 10 4 2 1 1 2 1 1 2 3 3 5 10 15 18 19 19 19 20 21 21 21 21 20 19 19 18 17 18 19 19 19 18 18 17 17 16 16 15 15 14 14 14 14 15 15 16 17 18 18 19 20 20 21 21 21 21 20 19 17 15 15 15 16 16 16
17 17 17 17 17 18 18 19 19 18 18 18 17 17 16 16 16 16 16 16 16 16 16 16 16 14 13 12 12 13 14 14 15 16 16 17 17 16 12 6 2 1 1 1 2 3 3 2 3 1 6 14 18 18 18 19 20 21 20 20 20 19 18 18 18 19 19 19 19 18 18 17 17 17 17 16 15 15 14 14 15 15 15 16 16 17 18 18 19 20 21 21 21 20 20 18 16 15 15 16 16 16 15
17 17 17 17 17 18 18 18 18 18 18 18 17 16 16 15 15 16 16 16 16 17 17 17 16 16 15 13 12 13 14 15 17 17 18 18 18 19 18 15 10 6 4 3 2 2 2 3 3 1 2 8 15 18 17 18 19 20 20 19 19 19 18 18 19 19 20 20 20 19 18 18 18 17 17 17 16 15 15 15 15 15 15 16 16 16 17 18 19 19 20 20 20 20 19 17 16 16 17 17 16 15 15
18 18 18 17 17 17 18 18 18 18 18 18 17 16 15 15 15 16 16 16 17 17 17 17 17 17 16 15 13 13 13 14 16 18 18 18 19 19 19 19 19 17 13 7 4 2 0 2 1 0 2 2 8 15 17 17 18 19 19 19 19 18 18 19 19 20 20 20 20 20 19 19 19 18 18 17 16 15 15 15 15 16 16 16 16 16 16 17 17 18 19 19 19 19 18 18 18 18 17 16 15 15 15
18 18 18 17 17 17 17 18 18 18 18 17 17 16 16 16 15 15 16 16 16 17 17 17 18 18 17 17 16 15 14 14 15 16 17 17 18 20 20 20 20 19 18 15 12 8 4 1 1 1 1 2 3 6 12 15 17 18 18 18 18 18 19 19 20 20 20 20 20 20 20 19 19 19 18 17 17 16 15 15 15 16 16 16 16 16 16 16 17 17 17 18 18 18 18 18 18 17 16 15 15 15 16
18 18 18 18 18 17 17 17 17 17 17 17 17 17 17 16 16 15 15 15 15 16 17 18 18 18 18 18 18 18 17 16 15 15 16 15 15 18 20 20 20 20 20 19 17 15 12 8 5 2 1 1 1 3 5 8 11 13 15 15 16 17 18 19 20 20 21 21 20 20 20 19 19 18 18 17 16 15 15 15 16 16 16 16 16 16 16 16 16 16 16 16 17 17 17 17 17 16 15 15 15 16 16
19 18 18 18 18 18 17 17 17 17 17 17 17 17 17 17 16 15 15 15 15 15 16 18 18 18 19 19 20 20 19 18 16 16 16 14 13 15 19 20 20 20 20 20 19 17 15 14 13 10 6 2 1 2 3 5 7 9 11 12 13 15 17 19 20 20 20 20 20 19 19 19 19 18 18 17 16 15 15 15 15 16 16 16 17 17 16 16 16 16 16 16 16 16 16 17 16 16 15 16 16 17 17
Wind_Direction
149 150 147 141 134 131 138 148 151 144 131 123 126 137 139 130 127 128 128 127 126 124 121 121 123 125 125 125 125 126 125 125 126 128 130 132 133 134 134 135 134 132 128 122 114 98 81 77 87 99 107 102 103 106 104 101 99 98 94 89 87 84 79 75 69 65 62 63 63 61 57 56 56 56 56 55 55 57 58 56 55 53 52 51 51 50 49 48 47 47 46 44 42 40 39 37 36 35 35 34 33 32 30
147 150 146 139 131 128 134 143 148 142 130 122 128 141 140 128 127 128 121 114 112 113 115 118 122 126 128 127 126 126 126 127 128 130 132 134 135 135 136 135 133 131 127 118 99 80 72 78 94 104 107 103 103 103 101 100 100 99 95 90 87 84 79 74 70 68 65 65 63 60 57 56 56 57 57 56 56 57 57 56 54 52 51 51 50 50 49 48 47 46 45 43 40 39 37 36 34 33 33 33 32 31 29
142 148 145 138 129 124 131 142 148 143 132 122 126 136 138 133 132 130 121 112 111 114 116 119 123 126 128 127 126 126 128 129 132 134 135 136 137 137 137 135 134 131 125 109 83 69 71 87 102 108 105 101 99 99 99 102 103 101 95 90 87 84 80 75 72 70 69 67 64 60 57 56 57 58 59 58 56 56 56 55 53 52 51 51 50 49 48 48 47 46 43 41 38 37 35 34 33 32 32 31 30 29 27
136 144 145 140 129 122 129 143 153 148 134 123 128 139 138 136 136 132 124 118 117 120 120 123 125 127 125 123 122 123 127 130 134 137 138 138 139 139 138 136 134 129 118 96 75 67 74 93 106 107 103 102 100 100 102 108 109 106 99 93 88 85 82 77 73 72 70 67 63 60 58 58 59 60 59 59 57 55 55 54 51 50 50 50 50 49 48 48 46 44 41 38 36 34 33 32 31 30 31 30 29 27 25
135 140 144 141 132 125 130 145 158 154 137 124 127 136 137 135 134 132 126 122 122 123 122 125 127 126 122 117 116 117 122 128 135 139 140 140 140 140 138 136 132 126 111 91 77 73 80 97 107 107 104 103 102 102 105 111 113 109 102 96 91 87 83 77 73 73 72 68 63 59 58 59 61 61 61 60 57 56 54 52 50 50 50 50 50 50 48 46 44 42 39 36 34 33 32 31 30 30 29 28 27 25 23
139 140 143 140 135 131 134 147 158 155 140 129 127 131 133 133 133 130 126 123 124 123 122 126 128 125 119 112 109 111 118 124 134 141 143 143 143 141 139 137 133 125 110 92 84 83 87 97 107 107 101 101 100 100 102 109 112 109 105 102 97 92 86 79 75 73 73 68 63 59 57 61 63 63 62 60 58 56 53 51 50 49 50 50 50 50 48 45 43 40 37 34 32 31 31 30 29 29 28 27 25 23 21
145 145 146 142 139 138 140 147 155 154 142 132 129 130 132 133 134 133 128 126 126 125 124 126 128 125 118 110 106 109 117 125 134 142 145 146 146 144 142 140 136 128 111 94 89 91 95 99 106 107 100 99 99 98 100 107 109 109 107 108 105 100 90 84 79 75 71 66 62 61 62 64 65 65 63 61 58 55 52 50 49 50 49 49 50 50 48 44 40 37 35 32 31 31 30 28 27 27 27 25 23 21 19
147 147 151 148 146 144 143 145 151 154 146 135 130 129 134 134 136 136 134 132 132 131 129 129 128 127 121 113 109 111 118 127 135 142 146 148 149 149 148 146 142 132 114 97 95 99 103 103 106 108 104 103 101 98 100 105 107 106 103 106 107 104 94 88 83 77 71 67 64 64 68 68 68 66 64 61 58 55 52 50 50 49 49 49 48 47 45 40 36 34 33 32 30 29 28 26 26 25 25 23 21 18 16
150 149 153 155 153 148 144 143 149 154 150 139 132 128 134 135 136 137 138 137 137 137 135 134 132 130 127 120 116 116 121 127 135 141 146 149 151 152 153 151 147 138 122 107 104 105 105 104 106 110 109 107 102 98 98 102 104 101 95 97 100 99 92 86 81 77 72 69 67 68 69 71 71 68 64 61 58 54 51 49 50 50 48 47 47 45 42 37 34 32 31 31 29 28 26 24 23 22 22 20 19 16 14
156 153 156 160 158 152 146 144 147 153 154 143 134 130 134 137 137 137 139 140 140 140 140 140 139 135 133 128 124 123 125 128 134 139 144 148 150 152 152 151 149 143 133 122 115 110 106 102 104 110 111 108 101 95 94 100 101 96 90 92 94 93 89 85 81 77 74 72 70 71 71 73 73 69 65 61 57 53 50 49 50 49 46 46 43 41 39 35 32 29 28 28 27 26 25 23 21 20 19 17 16 14 12
160 160 163 166 163 156 150 146 147 152 156 147 138 133 135 139 141 139 138 140 143 143 141 142 141 139 138 137 133 130 129 130 133 136 141 143 145 145 144 142 141 141 140 136 128 118 109 103 103 109 112 108 100 94 95 101 100 95 93 95 96 93 90 85 81 78 75 74 73 74 75 75 73 70 66 63 58 54 50 48 49 49 46 45 41 38 36 33 30 28 26 25 25 24 22 21 20 18 16 14 13 12 10
166 167 171 172 167 160 154 148 148 154 158 153 143 137 136 140 144 144 141 143 146 147 144 142 141 140 142 145 145 138 134 133 133 134 137 139 140 138 134 131 129 130 136 141 137 127 113 104 102 109 117 116 107 98 98 103 100 97 100 103 101 97 94 88 83 79 77 75 74 75 77 76 73 70 67 64 60 55 50 48 48 48 45 43 41 37 33 30 27 25 23 22 23 22 19 18 17 16 15 12 11 9 8
171 174 177 177 171 163 156 148 148 154 162 159 151 143 139 140 146 148 147 147 150 153 152 147 143 141 142 151 155 149 140 136 134 134 137 139 139 137 133 127 122 122 127 137 138 130 117 106 103 113 130 132 119 104 100 105 101 99 104 109 107 102 98 92 85 80 78 76 75 76 78 77 74 70 67 64 60 56 50 46 46 46 45 42 39 37 32 28 24 23 21 19 20 19 17 15 14 14 12 11 8 7 5
175 175 178 178 174 166 157 148 146 153 161 161 158 151 143 142 146 150 151 151 153 157 159 156 150 144 142 152 162 162 149 142 138 137 138 140 142 141 138 130 122 120 123 131 134 129 118 107 110 127 146 147 130 112 110 113 107 102 107 112 110 105 100 95 87 82 80 77 76 75 77 77 74 70 66 63 61 58 52 47 44 43 43 40 37 34 30 26 23 20 19 16 16 15 14 12 11 10 9 7 6 4 3
173 173 176 179 178 170 159 149 146 149 154 158 160 157 149 147 149 151 151 154 156 158 160 162 160 152 145 153 167 173 159 149 144 142 142 143 144 145 142 135 127 124 126 130 130 123 112 107 120 144 155 151 138 126 135 133 122 112 112 116 115 109 103 97 91 85 81 78 76 74 74 74 74 71 66 64 62 59 54 49 44 41 40 38 35 32 29 25 22 19 16 13 11 11 10 9 7 6 4 4 3 2 0
171 171 173 179 180 172 159 152 147 146 148 154 158 159 157 156 155 154 151 156 160 160 160 164 168 163 152 158 172 180 167 157 153 151 149 148 147 146 142 136 131 130 132 132 126 116 106 111 141 157 158 154 146 146 156 148 134 124 123 123 120 115 108 101 95 89 85 82 78 75 72 71 71 70 68 65 62 59 55 50 44 40 36 34 32 30 27 23 20 17 13 11 8 7 5 4 3 2 0 0 359 358 357
170 170 171 177 178 169 157 152 149 147 150 152 155 157 159 161 160 157 154 158 162 163 162 164 168 168 160 165 176 182 172 165 162 162 159 156 152 149 142 136 135 136 138 134 125 115 113 140 166 167 162 161 161 165 167 157 143 134 132 131 127 120 114 106 100 94 89 85 81 76 72 70 69 69 68 66 62 58 55 50 45 39 34 31 29 27 24 21 18 14 11 8 5 4 2 1 0 359 358 357 356 356 355
169 169 168 172 170 162 153 150 148 147 152 155 156 155 156 159 159 157 154 157 163 165 165 166 168 170 169 174 182 186 179 173 171 171 170 166 160 153 145 138 138 140 138 131 124 123 141 173 182 177 172 171 175 176 171 163 151 143 139 137 132 126 120 112 105 99 94 88 83 79 74 70 68 67 66 65 63 59 56 51 44 38 33 29 27 25 23 19 15 12 9 6 3 2 0 359 359 358 357 356 355 354 353
168 169 167 166 160 153 148 148 147 149 155 160 161 159 157 156 156 155 155 161 166 168 169 169 169 172 179 183 188 191 188 181 177 177 177 175 169 160 150 145 143 139 132 122 122 140 166 186 192 187 179 179 182 182 174 162 154 149 146 142 138 131 125 120 113 106 100 92 87 82 77 72 68 65 64 63 61 59 55 50 44 39 34 29 25 24 22 17 14 11 9 5 3 0 359 358 357 357 356 356 355 353 352
166 166 165 162 154 147 146 148 149 153 159 163 164 164 163 161 160 159 160 166 171 173 174 173 172 175 183 188 192 195 195 188 182 181 183 182 178 169 157 153 147 139 127 122 135 166 180 190 196 194 185 187 188 184 174 162 157 156 154 150 146 139 131 128 123 116 108 100 92 87 82 76 71 66 63 61 58 56 53 49 45 40 35 30 25 22 20 17 13 10 8 6 3 1 359 357 356 356 356 355 353 352 350
166 165 162 158 152 148 149 151 153 156 162 165 167 168 169 171 171 170 170 172 176 179 178 177 177 179 185 190 193 195 195 196 192 188 189 189 186 179 167 160 152 144 139 154 180 188 187 191 195 196 190 194 190 183 174 165 163 163 161 155 149 145 141 135 133 127 118 111 102 94 90 82 73 68 63 60 56 53 50 48 45 40 36 31 25 22 18 15 12 9 7 6 4 2 359 357 355 355 354 353 351 349 348
170 167 162 158 155 153 156 158 160 162 164 168 170 172 176 180 182 183 182 181 183 184 183 182 182 185 188 192 193 194 195 201 201 197 197 199 196 190 177 163 156 158 169 186 193 191 188 187 190 193 193 197 187 180 176 171 169 170 169 165 157 150 149 144 141 137 132 127 118 109 99 90 79 71 65 60 55 52 49 46 44 40 37 31 25 20 17 14 12 9 7 6 4 2 359 356 354 353 352 351 350 348 347
174 172 167 162 160 161 164 166 168 169 169 171 172 174 179 184 188 190 190 191 192 193 193 191 192 193 194 195 195 196 197 202 204 202 202 207 207 202 190 168 161 170 182 191 194 193 189 185 184 187 190 197 186 178 178 177 176 177 176 176 169 160 156 152 148 146 145 142 136 126 117 104 89 74 66 61 56 52 49 46 43 40 36 31 24 19 16 13 12 9 7 6 5 2 358 356 354 351 350 350 348 347 346
175 174 170 167 166 168 170 171 173 174 174 173 169 169 175 183 189 192 194 198 200 201 201 201 201 200 200 198 197 198 201 203 204 203 204 207 210 210 204 188 176 178 184 190 197 199 195 187 184 182 184 194 187 181 181 182 182 183 183 181 176 172 166 159 155 154 155 154 147 139 135 122 103 84 69 62 57 53 49 45 41 38 33 28 23 17 14 12 11 9 7 5 4 1 357 355 353 350 349 348 347 346 344
172 173 172 171 171 171 172 173 174 175 175 170 164 164 171 179 185 190 192 195 199 202 204 204 202 200 200 201 201 201 202 202 202 204 205 206 207 209 209 205 194 188 185 191 202 208 205 197 189 183 181 188 190 186 186 188 189 190 189 185 182 178 173 165 160 160 161 163 161 161 163 155 135 104 73 64 60 54 50 45 39 35 30 25 19 14 12 11 9 7 5 4 2 359 356 353 351 350 348 348 346 345 344
171 172 174 174 174 173 173 174 175 175 173 165 161 163 172 177 181 183 183 184 189 197 201 199 195 194 199 204 205 205 205 201 201 202 204 204 206 208 209 207 203 196 189 193 204 213 214 207 197 189 182 190 194 192 193 195 197 200 200 196 191 186 180 173 170 171 171 171 176 182 183 183 179 167 120 79 65 57 49 42 37 32 28 22 16 12 9 8 7 6 3 1 359 357 354 351 349 348 347 345 344 344 343
174 175 176 176 175 174 174 176 176 175 171 161 159 162 172 176 178 177 175 177 183 191 195 191 189 191 199 204 206 206 206 203 201 200 201 202 205 207 210 206 204 200 194 195 205 216 221 213 200 191 185 197 203 200 199 202 208 215 218 213 206 200 194 190 186 184 182 183 186 189 188 192 193 190 179 153 98 61 45 38 30 24 20 14 11 7 5 4 4 3 1 359 356 354 351 349 347 345 344 344 343 342 342
176 177 176 174 173 172 173 174 175 173 168 161 159 163 170 174 175 174 173 175 180 186 190 189 189 192 198 202 204 205 205 204 201 199 200 201 202 204 207 205 204 201 197 199 205 214 222 215 199 190 190 202 209 209 206 211 221 233 237 232 224 216 211 209 207 204 196 192 192 194 196 200 200 198 199 201 201 205 352 6 4 3 2 2 0 360 358 359 360 360 358 355 353 351 348 346 344 343 342 342 341 340 340
174 174 172 170 169 169 170 171 172 171 168 163 162 164 169 173 174 174 174 176 179 182 185 188 191 194 198 200 201 202 203 203 200 199 201 202 200 198 199 203 204 203 200 202 207 213 216 214 202 195 197 206 213 216 213 217 226 236 242 241 234 227 223 222 222 219 212 206 202 200 200 201 203 206 207 212 218 230 251 281 305 325 334 341 346 347 349 351 353 354 354 352 351 348 345 344 342 341 340 339 339 339 338
172 170 168 166 166 167 168 169 170 171 170 166 164 165 168 172 174 174 175 177 178 180 182 186 190 193 196 197 197 198 201 201 200 200 204 206 204 198 194 198 203 205 203 205 208 211 212 211 206 203 203 207 215 219 218 220 226 234 239 238 233 228 225 226 226 225 222 216 212 209 208 207 212 216 218 223 229 237 247 260 274 288 303 316 326 330 335 340 345 347 348 347 347 345 343 341 339 338 337 337 336 336 336
170 168 166 166 166 168 169 170 171 171 172 170 167 166 168 172 175 175 176 177 178 178 181 185 188 191 193 194 193 193 197 201 202 203 207 211 208 202 194 196 202 205 206 207 209 210 209 209 207 206 207 209 215 221 222 223 227 233 235 233 229 225 223 224 225 225 226 224 221 218 217 217 221 226 231 237 241 246 253 259 266 275 284 296 306 315 322 329 334 339 340 342 342 341 340 338 337 335 335 334 334 334 334
170 168 167 167 168 170 172 172 172 173 175 173 170 167 168 172 175 176 176 177 177 177 180 184 187 190 193 192 189 188 195 200 202 202 206 211 210 203 196 197 201 206 208 210 210 210 210 208 207 208 210 210 215 222 227 227 228 230 231 229 226 224 224 226 228 230 232 232 229 225 225 226 229 233 238 243 249 254 258 263 267 272 276 283 292 301 308 316 323 329 332 334 336 337 336 335 334 333 332 332 332 332 332
171 170 168 168 170 173 174 174 174 176 177 175 171 168 169 171 174 175 175 175 175 176 179 183 187 191 194 191 186 185 193 197 197 198 201 207 206 201 197 199 202 206 210 212 212 212 212 210 209 209 212 214 216 222 229 232 232 229 227 225 225 226 229 233 237 240 244 244 239 233 231 231 234 237 241 246 252 258 262 267 269 271 274 277 283 290 297 304 312 318 323 327 330 332 332 332 331 330 330 330 330 330 331
172 171 169 171 172 174 175 175 176 177 177 173 170 169 171 171 171 172 172 171 171 173 177 182 186 190 192 186 182 184 191 192 190 191 197 203 203 200 199 202 205 208 212 215 215 216 217 217 215 213 213 217 219 223 229 236 235 230 226 223 224 228 234 241 246 250 253 254 249 242 236 235 236 239 244 248 253 258 264 268 269 271 273 274 277 283 289 295 303 309 314 319 323 326 327 328 328 328 327 327 328 329 330
172 171 171 172 174 175 175 176 177 177 174 170 170 172 173 170 169 169 169 168 168 170 173 178 182 184 183 178 180 185 190 187 185 187 195 202 205 204 204 206 209 211 215 217 218 220 222 224 222 219 217 219 222 225 228 236 238 234 227 225 227 232 239 246 252 256 260 261 258 251 244 240 240 242 246 250 255 259 263 267 269 271 271 273 275 278 284 289 295 301 307 312 316 320 322 323 324 325 325 326 327 328 329
171 171 172 173 174 174 175 176 177 175 171 168 170 174 174 170 167 166 166 167 167 167 169 173 175 175 175 176 182 188 191 187 185 188 195 202 207 210 210 212 214 215 218 219 220 221 224 226 226 224 221 222 225 227 229 234 238 238 232 229 231 236 243 249 255 260 263 265 263 258 251 246 244 246 249 252 256 260 262 265 267 270 271 272 274 276 280 285 289 294 299 304 309 313 317 319 321 322 323 324 325 327 328
170 171 173 174 174 174 173 175 176 174 169 168 170 174 174 171 168 166 167 166 166 166 167 170 172 173 174 178 184 190 191 189 190 193 197 201 205 210 214 216 217 219 221 221 221 221 224 226 227 227 226 227 228 230 231 234 237 239 237 235 237 240 246 252 258 263 266 266 265 261 257 253 251 250 252 254 257 260 262 264 267 268 270 272 273 275 278 281 285 289 293 298 302 307 312 315 317 319 321 322 324 326 327
170 171 173 175 176 174 172 174 175 173 169 168 170 173 173 172 170 169 168 167 167 167 168 170 172 174 176 179 184 189 193 193 195 198 201 203 206 210 214 216 218 220 223 223 222 222 223 225 226 228 230 232 233 233 233 234 236 238 239 239 240 244 247 253 259 263 266 267 266 264 262 261 259 257 257 257 258 260 262 264 266 268 269 271 272 274 277 279 282 285 288 292 297 302 307 311 314 316 318 320 322 324 325
171 171 173 175 176 175 173 173 174 173 170 168 169 171 171 172 172 171 171 169 169 171 173 174 175 177 179 181 183 189 194 197 199 201 204 207 210 214 215 217 219 221 223 224 224 224 224 225 226 228 232 234 236 236 236 236 236 237 238 240 242 244 248 252 256 261 263 264 265 266 267 268 268 266 263 261 261 261 263 265 267 269 270 271 273 275 277 279 281 283 286 289 293 297 302 306 310 313 316 318 320 322 324
173 173 173 174 175 175 173 173 174 173 171 170 169 169 170 172 173 173 173 172 173 177 180 180 179 181 184 184 185 188 195 199 202 204 207 211 215 219 220 221 222 223 224 224 224 225 226 227 228 230 233 236 238 238 238 237 236 236 236 239 242 244 247 249 252 254 256 258 260 263 267 270 272 271 269 266 264 264 266 268 270 271 273 274 275 277 278 280 281 282 284 286 290 294 299 303 307 309 313 316 318 321 322
175 175 175 175 176 175 174 174 175 174 172 171 169 169 170 173 175 174 173 173 176 180 185 185 184 185 187 188 189 190 195 200 204 206 208 212 217 221 223 225 226 225 224 223 224 226 228 229 231 232 234 237 239 240 240 238 237 235 235 237 239 244 247 248 247 245 248 251 255 259 264 269 272 273 272 270 268 267 268 271 273 274 276 278 279 280 281 281 282 282 283 285 288 292 296 300 303 306 309 313 316 319 320
177 177 177 176 176 176 176 176 176 175 174 173 171 170 172 175 177 176 174 175 178 181 184 186 187 188 190 192 193 194 197 201 206 210 211 213 217 220 223 227 228 228 226 224 225 227 229 232 233 234 235 237 239 240 240 238 237 235 235 235 237 240 245 246 243 240 241 246 252 257 262 266 270 272 273 272 271 271 271 273 275 277 278 280 281 282 282 282 282 282 282 284 286 290 293 297 300 303 306 310 313 316 319
179 179 178 177 178 178 178 178 177 175 174 174 173 173 174 177 178 178 177 178 180 182 182 183 185 188 192 195 196 196 198 203 208 213 216 217 218 220 224 227 229 230 229 228 228 230 232 234 235 234 234 235 236 237 237 236 235 235 236 237 238 239 240 241 239 237 238 243 249 255 260 264 268 271 272 272 273 273 273 275 276 278 280 282 283 283 282 281 281 280 280 281 284 288 291 295 298 301 304 307 311 314 317
181 181 180 179 180 180 180 179 177 175 174 175 175 176 176 177 179 180 180 183 184 184 183 184 185 187 191 195 196 197 199 204 210 215 219 220 221 222 225 228 231 232 232 232 233 234 235 236 235 234 233 234 234 234 233 233 233 235 238 240 241 240 239 238 237 237 238 242 247 252 257 262 266 268 270 271 272 273 274 276 278 280 281 283 284 283 282 281 280 279 279 281 284 287 290 293 296 299 302 305 309 312 315
181 182 181 182 182 182 181 180 178 176 175 176 177 177 177 178 179 181 183 186 188 188 187 188 189 190 191 191 193 196 200 205 211 217 220 221 221 222 225 229 231 233 234 236 237 238 238 237 236 234 232 232 233 233 233 233 234 236 239 242 243 242 239 237 236 238 241 245 248 251 255 259 263 266 268 269 270 272 274 276 279 281 283 284 285 285 284 283 282 282 283 284 286 288 291 292 294 296 299 304 308 311 314
182 183 182 184 185 185 182 181 179 177 176 177 178 178 178 179 181 183 185 186 188 190 190 192 195 196 195 192 192 194 199 205 211 216 217 217 217 220 224 227 230 232 235 238 240 241 240 239 236 234 232 233 234 236 237 238 238 239 239 240 241 241 239 237 238 241 245 249 252 254 255 259 262 264 266 268 270 272 275 277 280 282 284 285 287 287 287 286 286 286 287 288 289 290 291 291 292 294 298 303 307 311 312
182 184 184 186 187 186 183 182 180 178 178 178 178 179 180 182 184 186 186 185 185 187 191 194 198 201 203 201 198 197 200 204 208 212 212 211 213 217 223 228 230 233 236 239 241 242 242 240 237 235 234 235 237 239 241 241 241 240 238 237 237 237 237 237 239 243 247 252 256 258 259 259 261 263 266 268 272 275 278 281 283 284 286 287 288 289 288 288 288 288 289 290 291 291 291 291 292 294 299 304 308 311 312
183 185 185 187 189 187 184 182 181 180 180 180 179 180 181 184 186 188 189 188 185 184 188 194 198 202 207 209 209 208 207 207 209 211 213 215 218 223 230 236 240 242 243 243 242 242 242 241 240 238 237 238 239 240 242 242 241 239 237 235 233 233 233 236 239 244 249 254 258 261 262 262 261 262 265 269 274 278 281 284 286 287 288 288 288 288 289 289 289 290 291 292 293 293 293 293 294 297 302 306 309 310 311
183 185 186 189 190 188 184 183 183 182 182 182 182 182 182 185 188 190 191 192 190 188 187 193 198 201 204 211 215 217 216 216 216 217 218 224 231 238 241 246 250 251 251 249 246 243 242 240 239 239 238 238 239 240 241 240 239 238 236 233 230 230 231 234 238 243 249 254 258 261 264 265 265 264 265 268 272 276 280 283 285 286 287 287 287 287 288 289 290 291 293 294 294 295 295 295 297 301 305 308 309 309 310
183 184 185 189 190 188 184 184 184 183 183 183 183 182 183 186 189 190 192 194 195 193 191 195 200 203 203 208 214 219 221 221 219 218 220 224 230 239 250 250 249 250 251 251 249 245 241 239 238 238 237 238 238 239 239 238 237 235 233 231 230 229 230 233 237 242 247 252 256 260 264 268 270 271 270 270 270 271 272 275 278 280 283 284 285 286 287 288 290 292 293 294 295 296 296 297 300 304 307 309 309 309 310
183 184 185 187 188 187 185 185 185 184 184 184 184 184 185 187 189 190 191 193 195 195 194 196 200 204 206 208 214 221 223 221 216 211 209 214 218 219 229 250 260 258 250 250 247 243 240 237 236 236 237 237 237 237 237 236 234 232 230 230 230 231 232 233 235 238 242 247 252 257 261 266 271 273 274 274 273 271 268 268 271 275 279 282 284 286 287 289 291 292 293 294 295 295 296 299 302 305 307 308 308 309 312
183 184 184 186 187 186 185 186 186 186 185 185 185 186 187 188 190 191 191 192 194 195 195 196 198 201 205 210 216 222 223 215 209 205 202 205 213 221 228 235 271 339 310 273 253 239 231 230 232 233 234 235 235 235 235 233 231 229 228 229 232 234 235 234 233 235 238 242 246 252 257 262 267 271 273 275 276 275 273 271 271 274 278 281 284 286 288 290 291 292 293 293 294 294 296 298 302 305 306 307 309 310 313
184 184 184 186 186 186 186 187 187 187 186 186 187 188 189 190 191 192 193 194 195 196 197 197 196 197 203 209 216 221 218 206 201 201 203 204 210 222 233 222 191 224 230 296 330 292 229 225 229 232 232 232 233 233 232 230 228 228 229 230 233 236 238 236 233 231 233 236 241 246 251 257 263 267 271 273 276 278 279 278 277 277 279 281 283 285 286 288 289 290 291 291 291 292 294 297 301 303 306 307 309 311 314
184 184 185 185 186 186 186 187 188 188 188 188 189 190 191 192 193 194 194 195 196 197 197 197 196 195 197 205 215 219 213 202 198 199 202 204 209 215 224 188 202 214 204 139 69 312 293 232 227 231 232 231 230 229 228 226 226 228 230 232 235 238 238 235 231 228 229 232 236 241 246 252 258 264 268 271 275 279 281 283 283 282 281 281 281 282 283 283 284 285 286 287 289 290 293 296 300 302 304 306 309 312 315
184 185 185 185 186 186 187 188 188 189 190 190 191 191 193 194 195 196 196 197 198 198 198 197 197 197 197 200 208 214 213 207 204 205 206 207 211 212 198 171 183 313 344 68 148 221 255 251 231 224 224 224 223 222 223 223 225 229 232 234 236 236 235 232 229 228 229 231 235 238 242 248 254 260 264 269 274 278 281 284 285 284 283 282 281 280 280 279 279 279 282 284 286 289 292 295 298 300 301 304 308 312 315
184 185 186 187 187 187 187 188 189 190 191 191 192 193 194 196 197 198 198 199 199 200 200 199 199 201 203 203 206 209 212 211 212 214 215 215 216 218 219 205 162 102 350 280 230 224 236 295 346 328 214 212 212 213 216 220 225 230 234 236 236 234 233 231 229 229 231 233 235 236 240 244 250 255 261 266 271 276 281 284 285 285 284 283 281 280 278 277 277 277 279 282 285 288 291 293 295 296 298 302 306 311 315
185 186 187 188 188 188 188 188 189 191 192 193 193 194 196 197 198 200 201 200 201 202 203 202 203 204 207 209 211 211 211 209 210 214 219 221 221 221 221 221 214 198 196 188 198 229 282 346 8 13 276 206 205 208 214 221 227 232 235 236 236 234 232 231 231 232 234 236 236 236 237 240 245 251 257 263 268 273 279 283 286 287 286 285 282 280 278 277 277 277 279 281 284 287 289 291 292 294 296 301 305 311 315
187 188 189 190 191 190 190 189 191 192 194 194 194 195 197 198 200 201 202 202 203 204 205 206 206 207 208 211 215 219 218 209 206 209 216 221 223 223 223 224 226 227 228 226 226 227 22 34 52 248 319 281 218 213 218 223 228 231 233 234 234 233 232 232 232 233 235 237 237 237 237 239 243 247 254 259 264 269 275 281 286 287 287 286 285 282 279 278 277 278 279 280 282 285 287 288 290 292 296 301 306 311 315
189 190 191 192 193 193 192 192 192 194 196 196 196 197 199 201 202 203 204 205 206 206 206 208 209 209 209 211 215 221 226 219 208 204 207 215 220 222 223 224 227 230 235 243 249 252 244 188 167 194 55 340 285 241 226 226 226 227 229 232 233 232 232 232 232 233 234 236 238 239 239 241 244 247 251 255 260 265 271 278 283 287 288 288 286 284 282 280 279 278 279 279 281 283 286 287 290 293 298 302 307 312 315
190 191 193 194 196 196 195 194 194 196 198 199 199 200 202 204 204 205 206 207 209 209 209 210 211 212 211 211 213 218 224 225 218 207 201 206 215 220 220 223 226 230 234 239 245 249 251 242 229 206 150 200 275 296 281 246 233 230 230 232 234 235 235 235 234 234 234 235 237 239 241 243 246 248 251 254 257 261 267 275 281 286 287 287 286 285 283 281 280 280 279 280 281 284 286 289 292 295 299 303 308 312 315
191 192 194 196 197 198 198 197 197 198 200 201 202 203 204 205 206 206 207 209 210 212 213 213 213 213 213 213 215 217 220 224 223 216 207 203 209 218 218 222 226 229 233 237 241 245 248 249 247 243 234 213 215 267 285 282 269 258 253 250 250 249 246 241 237 234 233 233 235 238 241 243 246 249 253 255 257 260 266 273 280 285 286 286 285 284 283 282 281 281 281 282 283 285 287 290 293 297 300 304 309 313 315